TimeMDT,TemperatureF,Dew PointF,Humidity,Sea Level PressureIn,VisibilityMPH,Wind Direction,Wind SpeedMPH,Gust SpeedMPH,PrecipitationIn,Events,Conditions,WindDirDegrees,DateUTC
12:48 AM,53.1,36.0,52,29.86,-9999.0,Calm,Calm,-,N/A,,Unknown,0,2013-05-16 06:48:00
1:48 AM,54.0,35.1,49,29.85,-9999.0,Calm,Calm,-,N/A,,Unknown,0,2013-05-16 07:48:00
2:48 AM,54.0,34.0,47,29.82,-9999.0,Calm,Calm,-,N/A,,Unknown,0,2013-05-16 08:48:00
3:48 AM,51.1,37.9,61,29.83,-9999.0,WSW,3.5,-,N/A,,Unknown,240,2013-05-16 09:48:00
4:48 AM,50.0,37.9,63,29.83,-9999.0,West,4.6,-,N/A,,Unknown,260,2013-05-16 10:48:00
5:48 AM,46.0,36.0,68,29.83,-9999.0,Calm,Calm,-,N/A,,Unknown,0,2013-05-16 11:48:00
6:48 AM,48.9,39.0,69,29.84,-9999.0,Calm,Calm,-,N/A,,Unknown,0,2013-05-16 12:48:00
7:48 AM,53.1,39.0,59,29.85,-9999.0,WNW,3.5,-,N/A,,Unknown,290,2013-05-16 13:48:00
8:48 AM,61.0,37.9,42,29.84,-9999.0,Calm,Calm,-,N/A,,Unknown,0,2013-05-16 14:48:00
9:48 AM,66.0,42.1,42,29.84,-9999.0,South,6.9,-,N/A,,Unknown,170,2013-05-16 15:48:00
10:48 AM,69.1,45.0,42,29.83,-9999.0,SSE,11.5,-,N/A,,Unknown,150,2013-05-16 16:48:00
11:48 AM,70.0,45.0,41,29.83,-9999.0,SE,6.9,18.4,N/A,,Unknown,140,2013-05-16 17:48:00
12:48 PM,70.0,43.0,38,29.82,-9999.0,SE,8.1,-,N/A,,Unknown,140,2013-05-16 18:48:00
1:48 PM,70.0,43.0,38,29.81,-9999.0,South,5.8,-,N/A,,Unknown,180,2013-05-16 19:48:00
2:48 PM,64.9,46.9,52,29.82,-9999.0,WNW,12.7,19.6,N/A,,Unknown,300,2013-05-16 20:48:00
3:48 PM,63.0,48.0,58,29.82,-9999.0,WNW,10.4,-,N/A,,Unknown,300,2013-05-16 21:48:00
4:48 PM,66.0,46.9,50,29.80,-9999.0,NNE,5.8,-,N/A,,Unknown,20,2013-05-16 22:48:00
5:48 PM,64.0,46.0,52,29.82,-9999.0,NNE,8.1,-,N/A,,Unknown,20,2013-05-16 23:48:00
6:48 PM,63.0,46.9,56,29.81,-9999.0,NNE,10.4,-,N/A,,Unknown,20,2013-05-17 00:48:00
7:48 PM,62.1,46.0,56,29.81,-9999.0,NE,8.1,-,N/A,,Unknown,50,2013-05-17 01:48:00
8:48 PM,60.1,48.0,64,29.82,-9999.0,ENE,3.5,-,N/A,,Unknown,60,2013-05-17 02:48:00
9:48 PM,60.1,48.0,64,29.83,-9999.0,East,4.6,-,N/A,,Unknown,100,2013-05-17 03:48:00
10:48 PM,59.0,48.0,67,29.84,-9999.0,Calm,Calm,-,N/A,,Unknown,0,2013-05-17 04:48:00
11:48 PM,55.9,52.0,87,29.83,-9999.0,Calm,Calm,-,0.01,,Unknown,0,2013-05-17 05:48:00